Location: Holyhead Bay
(53.3667°N, 4.6667°W)
Time: 18:41:41
(UTC+00:00)

NOAA 6 - Pass Details

Date: 24 November 2020
Orbit: 772 x 787 km, 98.7° (Epoch: 16 January)

Event Time Altitude Azimuth Distance (km) Brightness Sun altitude
Rises 16:50:09 0° 156° (SSE) 3,262 7.3 -6.0°
Reaches altitude 10° 16:52:28 10° 154° (SSE) 2,335 6.5 -6.3°
Maximum altitude 16:57:36 74° 71° (ENE) 816 4.0 -7.0°
Drops below altitude 10° 17:02:45 10° 347° (NNW) 2,342 6.4 -7.6°
Sets 17:05:05 0° 346° (NNW) 3,272 7.2 -8.0°
